Regional Weather Roundup
Issued by NWS

Home | Current Version | Previous Version | Text Only | Print | Product List | Glossary On
Versions: 1 2 3 4 5 6 7 8 9 10 11 12 13 14 15 16 17 18 19 20 21 22 23 24 25 26 27 28 29 30 31 32 33 34 35 36 37 38 39 40 41 42 43 44 45 46 47 48 49 50
282
ASUS44 KJAN 201010
RWRMS

MISSISSIPPI HOURLY WEATHER ROUNDUP
NATIONAL WEATHER SERVICE JACKSON MS
400 AM CST THU NOV 20 2014

NOTE: "FAIR: INDICATES FEW OR NO CLOUDS BELOW 12,000 FEET WITH NO
SIGNIFICANT WEATHER AND/OR OBSTRUCTIONS TO VISIBILITY.

MSZ001>002-007>008-010>013-018>021-025>028-034>036-201100-
NORTHWEST MISSISSIPPI

CITY           SKY/WX    TMP DP  RH WIND       PRES   REMARKS
CLARKSDALE     FAIR      37  37 100 NW5       30.23R WCI  34
CLEVELAND      FAIR      42  39  88 SW7       30.22S
GREENWOOD      CLOUDY    46  30  53 CALM      30.24R
GREENVILLE     MOCLDY    44  37  76 W3        30.22S
GRENADA        CLOUDY    41  30  65 CALM      30.23S
OLIVE BRANCH   CLEAR     32  32 100 N8        30.22R WCI  25
OXFORD         FAIR      39  32  75 W3        30.22S
TUNICA         SUNNY     34  32  93 N7        30.23R WCI  28
$$

MSZ003>006-009-014>017-022>024-029>033-037>039-201100-
NORTHEAST MISSISSIPPI

CITY           SKY/WX    TMP DP  RH WIND       PRES   REMARKS
COLUMBUS AFB   CLOUDY    42  30  63 S3        30.24S
CORINTH        FAIR      30  27  86 CALM      30.20R
GOLDN TRIANGLE CLOUDY    43  30  61 SW5       30.22F
STARKVILLE       N/A    N/A N/A N/A MISG        N/A
TUPELO         CLEAR     39  26  59 SW5       30.21S
$$

MSZ040-058-201100-
CENTRAL MISSISSIPPI

CITY           SKY/WX    TMP DP  RH WIND       PRES   REMARKS
JACKSON INTL   MOCLDY    44  39  82 S6        30.24F
JACKSON HAWKNS CLOUDY    42  36  79 S3        30.24F
MERIDIAN KEY   MOCLDY    35  32  88 S3        30.26F
MERIDIAN NAS   MOCLDY    42  36  79 SW3       30.25F
RAYMOND        FAIR      41  37  87 CALM      30.24F
VICKSBURG      MOCLDY    38  33  82 CALM      30.24S
$$

MSZ059>079-201100-
SOUTH MISSISSIPPI

CITY           SKY/WX    TMP DP  RH WIND       PRES   REMARKS
BROOKHAVEN     FAIR      39  39 100 S5        30.26F
COLUMBIA         N/A     34  32  93 MISG        N/A
HATTIESBURG    CLEAR     34  33  96 CALM      30.27F
MCCOMB         PTCLDY    39  36  89 CALM      30.25F
NATCHEZ        PTCLDY    45  37  76 S7        30.24F
PINE BELT      CLEAR     34  28  80 CALM      30.26F
$$

MSZ080>082-201100-
COASTAL MISSISSIPPI

CITY           SKY/WX    TMP DP  RH WIND       PRES   REMARKS
BILOXI         CLEAR     38  37  98 NE2       30.26F
PASCAGOULA     CLEAR     29  28  96 CALM      30.27F
GULFPORT       CLEAR     35  33  92 CALM      30.26F
$$



USA.gov is the U.S. government's official web portal to all federal, state and local government web resources and services.